Weather in Orlovka

Russia / Belgorod Oblast     51°04′50″N   36°21′18″E
temp.,
°C
wind,
m/s
gust,
m/s
humid.,
%
clouds,
%
prec.,
mm/h
press.,
hPa
HPBL,
m
17 june, thu
thu1700:00+17ne411950 0.1 1015221
03:00+16ne41197100 0.1 1016264
06:00+16ne512953 0.0 1016313
09:00+20ene7108332 0.0 1017655
12:00+23ene81073100 0.0 10181311
15:00+23ene7974100 0.1 10181400
18:00+22ne711806 0.2 1019826
21:00+19ne614840 0.2 1020537
18 june, fri
fri1800:00+17ene715840 0.0 1021563
03:00+15ene614840 0.0 1021401
06:00+15ene615850 0.0 1022441
09:00+19e712740 0.0 1023753
12:00+21e79640 0.0 10231144
15:00+22e78650 0.0 10231426
18:00+22ene59740 0.0 10231112
21:00+17ene411920 0.0 1024255
19 june, sat
sat1900:00+16ene513850 0.0 1024326
03:00+14ene411910 0.0 1024229
06:00+15ene5129043 0.0 1024311
09:00+19e711756 0.0 1024575
12:00+22e710678 0.0 1023864
15:00+23e79664 0.0 10231097
18:00+23e69760 0.0 1022874
21:00+18e411890 0.0 1023305
20 june, sun
sun2000:00+16e411920 0.0 1023213
03:00+14ene411894 0.0 1023202
06:00+15e4128596 0.0 1023286
09:00+20e6117097 0.0 1022477
12:00+23e7106397 0.0 1021747
15:00+24e6966100 0.0 1020844
18:00+21ene4980100 0.0 1020355
21:00+21e61471100 0.0 1020467
21 june, mon
mon2100:00+19e61479100 0.0 1019365
03:00+18e6147789 0.0 1018289
06:00+18e6138198 0.0 1018294
09:00+22e697420 0.0 1018350
12:00+26e696191 0.0 1018712
15:00+27e61164100 0.0 10171080
18:00+25ese6117192 0.0 1017685
21:00+21e4128934 0.0 1017225